[[{"header":{"parameterUnit":"m.s-1","parameterCategory":1,"la1":30.2991,"la2":30.254,"lo1":-89.0895,"lo2":-89.0444,"dy":0.0017,"dx":0.0017,"nx":28,"ny":28,"refTime":"2025-08-25T21:00:00:Z","depth":0,"parameterNumber":2,"parameterNumberName":"U-component_of_WINDS"},"data":[0,0,0,0,0,0,0,0,0,0,0,0,0,0,0,0,0,0,0,0,0,0,0,0,0,0,0,0,0,0,0,0,0,0,0,0,0,0,0,0,0,0,0,0,0,0,0,0,0,0,0,0,0,0,0,0,0,0,-2.4718,-2.4718,0,-2.4726,-2.4726,-2.4726,-2.4677,-2.4676,-2.4675,-2.4673,-2.4682,-2.4684,-2.4685,0,0,0,0,0,0,0,0,0,0,0,0,0,-2.4662,-2.4664,-2.4718,-2.4718,-2.4718,-2.4726,-2.4726,-2.4726,-2.4678,-2.4676,-2.4674,-2.4673,-2.4682,-2.4683,-2.4685,0,0,0,0,0,0,0,0,0,0,0,0,0,-2.468,-2.4664,-2.4718,-2.4695,-2.4693,-2.4726,-2.4726,-2.4726,-2.4678,-2.4676,-2.4674,-2.4672,-2.4681,-2.4683,-2.4685,-2.4741,0,0,-2.4692,-2.4693,0,0,0,0,0,0,0,0,-2.4679,-2.4682,-2.4698,-2.4697,-2.4694,-2.4698,-2.4709,-2.4731,-2.4679,-2.4684,-2.4673,-2.4671,-2.4689,-2.4691,-2.4697,-2.4741,-2.4742,-2.4693,-2.4694,-2.4695,-2.4696,0,0,0,0,0,0,0,-2.4678,-2.4681,-2.4721,-2.4699,-2.4696,-2.4685,-2.4685,-2.4713,-2.4698,-2.4683,-2.468,-2.4681,-2.4688,-2.4695,-2.4697,-2.4742,-2.4693,-2.4695,-2.4696,-2.4697,-2.4834,-2.4836,0,0,0,0,0,0,-2.468,-2.4681,-2.4721,-2.4721,-2.4681,-2.4687,-2.4687,-2.4699,-2.4698,-2.4695,-2.4683,-2.4679,-2.4692,-2.4694,-2.4697,-2.4763,-2.4695,-2.4697,-2.4698,-2.4831,-2.4834,-2.4837,0,0,0,0,0,0,-2.4679,-2.4684,-2.4721,-2.47,-2.4704,-2.469,-2.4704,-2.4701,-2.4707,-2.4697,-2.4695,-2.4693,-2.469,-2.4694,-2.4731,-2.4762,-2.4698,-2.47,-2.4829,-2.4832,-2.4835,-2.4895,0,0,0,0,0,0,-2.4677,-2.4684,-2.4704,-2.4701,-2.4705,-2.4754,-2.4706,-2.4702,-2.4711,-2.4706,-2.4706,-2.4704,-2.4689,-2.4727,-2.4733,-2.4764,-2.4702,-2.4826,-2.483,-2.4834,-2.489,-2.49,-2.4908,0,0,0,0,0,-2.4675,-2.4721,-2.4706,-2.4711,-2.4731,-2.4756,-2.4759,-2.474,-2.4714,-2.4735,-2.4729,-2.4704,-2.4758,-2.4732,-2.4737,-2.477,-2.4824,-2.4829,-2.4834,-2.4886,-2.4898,-2.4908,0,0,0,0,0,0,-2.4728,-2.472,-2.4703,-2.4749,-2.4753,-2.4748,-2.4774,-2.4753,-2.4766,-2.4761,-2.4737,-2.4738,-2.4779,-2.4778,-2.4749,-2.4824,-2.4786,-2.4793,-2.4824,-2.4835,-2.4844,-2.4845,-2.4704,0,0,0,0,0,-2.4745,-2.4766,-2.4758,-2.4799,-2.4802,-2.4788,-2.4798,-2.4783,-2.4788,-2.4789,-2.4786,-2.4791,-2.4809,-2.4822,-2.4838,-2.4889,-2.4889,-2.4914,-2.4924,-2.4931,-2.4938,-2.4966,-2.4978,-2.4853,-2.4853,-2.4853,0,0,-2.4781,-2.4779,-2.4793,-2.4809,-2.4811,-2.4834,-2.479,-2.4815,-2.4833,-2.4793,-2.4829,-2.4826,-2.483,-2.4875,-2.4895,-2.4876,-2.4972,-2.4938,-2.4944,-2.4946,-2.4973,-2.4984,-2.4995,-2.4857,-2.4856,-2.4856,0,0,-2.4857,-2.4857,-2.4892,-2.4895,-2.4899,-2.4889,-2.4897,-2.4895,-2.4892,-2.4926,-2.4898,-2.4918,-2.4949,-2.4954,-2.496,-2.5039,-2.5017,-2.5045,-2.5093,-2.5121,-2.5131,-2.514,-2.517,-2.518,-2.5051,-2.5051,-2.5051,0,-2.4901,-2.4934,-2.4913,-2.4941,-2.4949,-2.4914,-2.495,-2.4954,-2.4963,-2.497,-2.4948,-2.4987,-2.4987,-2.5034,-2.5053,-2.5059,-2.5068,-2.5046,-2.5131,-2.514,-2.5148,-2.5176,-2.5187,-2.5054,-2.5054,-2.5054,-2.5053,0,-2.4989,-2.5012,-2.504,-2.505,-2.5061,-2.5092,-2.5076,-2.509,-2.5074,-2.5067,-2.5103,-2.5102,-2.5119,-2.5128,-2.5113,-2.5172,-2.516,-2.5135,-2.5097,-2.5163,-2.519,-2.52,-2.5059,-2.5058,-2.5057,-2.5056,0,0,-2.51,-2.5097,-2.5108,-2.5113,-2.5114,-2.5132,-2.5162,-2.5178,-2.5191,-2.5198,-2.5224,-2.5251,-2.5228,-2.5235,-2.522,-2.5244,-2.5309,-2.5216,-2.5216,-2.5235,-2.5377,-2.5397,-2.541,-2.5294,-2.5295,-2.5297,-2.5377,0,-2.5177,-2.5229,-2.521,-2.5263,-2.5285,-2.5252,-2.5279,-2.5283,-2.5277,-2.5295,-2.5288,-2.5308,-2.5275,-2.528,-2.5302,-2.5296,-2.5337,-2.529,-2.5319,-2.532,-2.5321,-2.5423,-2.5445,-2.552,-2.5387,-2.5388,-2.539,0,-2.5273,-2.5284,-2.534,-2.5339,-2.5347,-2.5371,-2.5385,-2.5402,-2.5406,-2.5399,-2.5408,-2.5388,-2.5418,-2.5378,-2.542,-2.5389,-2.5399,-2.5398,-2.54,-2.5404,-2.536,-2.5432,-2.5544,-2.5556,-2.5405,-2.5404,-2.5403,0,-2.5352,-2.538,-2.5418,-2.5422,-2.5421,-2.5439,-2.5439,-2.5441,-2.5452,-2.5463,-2.547,-2.5484,-2.5493,-2.5505,-2.549,-2.5462,-2.5535,-2.5493,-2.5532,-2.5532,-2.555,-2.555,-2.5668,-2.5553,-2.5553,-2.5553,-2.5553,0,-2.544,-2.5476,-2.5453,-2.5477,-2.5516,-2.5494,-2.5534,-2.553,-2.5532,-2.5555,-2.5526,-2.5548,-2.5525,-2.5545,-2.5533,-2.557,-2.5574,-2.5571,-2.5567,-2.5574,-2.5575,-2.5583,-2.5578,-2.5556,-2.5555,-2.5555,-2.5554,0,-2.5535,-2.5521,-2.556,-2.5555,-2.5555,-2.5585,-2.5581,-2.5602,-2.5594,-2.5623,-2.5628,-2.5615,-2.5637,-2.5622,-2.5644,-2.5635,-2.5686,-2.5674,-2.5685,-2.5682,-2.5722,-2.572,-2.5851,-2.5868,-2.5741,-2.5742,-2.5743,0,-2.5594,-2.5621,-2.5619,-2.5632,-2.5634,-2.5655,-2.5666,-2.5645,-2.5658,-2.5665,-2.5686,-2.5705,-2.572,-2.5756,-2.5749,-2.5766,-2.5756,-2.58,-2.5758,-2.5765,-2.5759,-2.5759,-2.5762,-2.581,-2.5811,-2.5813,-2.5814,0,-2.57,-2.5692,-2.5709,-2.5723,-2.5737,-2.5748,-2.5756,-2.5768,-2.5747,-2.5762,-2.5784,-2.5796,-2.5818,-2.5838,-2.5852,-2.5853,-2.5831,-2.5827,-2.5837,-2.5846,-2.5852,-2.5851,-2.571,-2.5824,-2.5823,-2.5822,-2.5822,-2.5821,-2.578,-2.5803,-2.5806,-2.5826,-2.583,-2.5838,-2.5859,-2.5852,-2.587,-2.5887,-2.5873,-2.59,-2.5904,-2.592,-2.5923,-2.5944,-2.5926,-2.5941,-2.5945,-2.5949,-2.5956,-2.5846,-2.5947,-2.5946,-2.5946,-2.5946,-2.5945,0,-2.5887,-2.5887,-2.5905,-2.5918,-2.5934,-2.591,-2.5918,-2.5933,-2.5957,-2.5962,-2.5977,-2.6003,-2.6022,-2.6016,-2.6033,-2.6052,-2.6042,-2.6057,-2.6057,-2.6058,-2.597,-2.596,-2.6065,-2.6065,-2.6065,-2.6065,-2.6065,-2.6065,-2.5945,-2.5983,-2.5975,-2.6015,-2.6014,-2.604,-2.6047,-2.6055,-2.6059,-2.6089,-2.6105,-2.6101,-2.6102,-2.6119,-2.6136,-2.6134,-2.6143,-2.6162,-2.6156,-2.6075,-2.6063,-2.6052,-2.6043,-2.6163,-2.6164,-2.6243,-2.6243,-2.6244]},{"header":{"parameterUnit":"m.s-1","parameterCategory":1,"la1":30.2991,"la2":30.254,"lo1":-89.0895,"lo2":-89.0444,"dy":0.0017,"dx":0.0017,"nx":28,"ny":28,"refTime":"2025-08-25T21:00:00:Z","depth":0,"parameterNumber":3,"parameterNumberName":"V-component_of_WINDS"},"data":[0,0,0,0,0,0,0,0,0,0,0,0,0,0,0,0,0,0,0,0,0,0,0,0,0,0,0,0,0,0,0,0,0,0,0,0,0,0,0,0,0,0,0,0,0,0,0,0,0,0,0,0,0,0,0,0,0,0,-3.4809,-3.4809,0,-3.4804,-3.4804,-3.4804,-3.4755,-3.4754,-3.4753,-3.4752,-3.4747,-3.4748,-3.4749,0,0,0,0,0,0,0,0,0,0,0,0,0,-3.4775,-3.4776,-3.4809,-3.4809,-3.4809,-3.4804,-3.4804,-3.4804,-3.4756,-3.4754,-3.4753,-3.4751,-3.4747,-3.4748,-3.4749,0,0,0,0,0,0,0,0,0,0,0,0,0,-3.4782,-3.4776,-3.4809,-3.4784,-3.4782,-3.4804,-3.4804,-3.4804,-3.4756,-3.4754,-3.4752,-3.4751,-3.4746,-3.4748,-3.4749,-3.4795,0,0,-3.4754,-3.4755,0,0,0,0,0,0,0,0,-3.4782,-3.4783,-3.4788,-3.4786,-3.4783,-3.4778,-3.479,-3.4801,-3.4756,-3.4766,-3.4752,-3.475,-3.4759,-3.4759,-3.4762,-3.4795,-3.4795,-3.4754,-3.4755,-3.4756,-3.4756,0,0,0,0,0,0,0,-3.4781,-3.4783,-3.4807,-3.4788,-3.4785,-3.4773,-3.4772,-3.4792,-3.4773,-3.4765,-3.4761,-3.4761,-3.4757,-3.4761,-3.4762,-3.4795,-3.4754,-3.4755,-3.4756,-3.4757,-3.4865,-3.4867,0,0,0,0,0,0,-3.4784,-3.4783,-3.4807,-3.4807,-3.4778,-3.4775,-3.4774,-3.4782,-3.4772,-3.4769,-3.4763,-3.4759,-3.4759,-3.476,-3.4762,-3.4815,-3.4756,-3.4757,-3.4758,-3.4863,-3.4865,-3.4868,0,0,0,0,0,0,-3.4784,-3.4787,-3.4807,-3.4794,-3.4796,-3.4778,-3.4787,-3.4783,-3.4786,-3.4771,-3.4767,-3.477,-3.4758,-3.476,-3.4787,-3.4814,-3.4758,-3.4759,-3.4861,-3.4864,-3.4867,-3.4923,0,0,0,0,0,0,-3.4783,-3.4787,-3.4804,-3.4795,-3.4797,-3.4833,-3.4789,-3.4784,-3.4789,-3.4784,-3.4777,-3.4774,-3.4757,-3.4785,-3.4789,-3.4815,-3.476,-3.4858,-3.4862,-3.4866,-3.4918,-3.4927,-3.4935,0,0,0,0,0,-3.4782,-3.482,-3.4806,-3.4809,-3.4818,-3.4835,-3.4836,-3.4815,-3.4792,-3.4809,-3.4799,-3.4774,-3.4811,-3.4789,-3.4792,-3.482,-3.4856,-3.4861,-3.4865,-3.4914,-3.4925,-3.4934,0,0,0,0,0,0,-3.4833,-3.4818,-3.4802,-3.4838,-3.4838,-3.4827,-3.4848,-3.4827,-3.4834,-3.4829,-3.4803,-3.4802,-3.4834,-3.4829,-3.4805,-3.4864,-3.4829,-3.4835,-3.4866,-3.4876,-3.4884,-3.4884,-3.4762,0,0,0,0,0,-3.4849,-3.4864,-3.485,-3.4883,-3.4884,-3.4866,-3.4873,-3.4857,-3.4856,-3.4855,-3.4847,-3.4847,-3.4859,-3.4867,-3.4876,-3.4917,-3.4915,-3.4938,-3.4946,-3.4953,-3.4958,-3.4979,-3.4989,-3.4882,-3.4882,-3.4882,0,0,-3.4881,-3.4875,-3.4886,-3.4893,-3.4892,-3.4908,-3.4866,-3.4885,-3.4897,-3.4858,-3.4884,-3.4878,-3.4876,-3.4911,-3.4926,-3.4908,-3.4987,-3.4958,-3.4964,-3.4965,-3.4985,-3.4995,-3.5004,-3.4885,-3.4885,-3.4884,0,0,-3.4948,-3.4945,-3.4972,-3.4971,-3.4969,-3.4957,-3.4964,-3.4955,-3.495,-3.4975,-3.4947,-3.496,-3.498,-3.498,-3.4983,-3.505,-3.5028,-3.5054,-3.5097,-3.5119,-3.5127,-3.5134,-3.5159,-3.5168,-3.5059,-3.5059,-3.5059,0,-3.4988,-3.5012,-3.4989,-3.501,-3.5014,-3.498,-3.5008,-3.5008,-3.5009,-3.5013,-3.4993,-3.5018,-3.5014,-3.5048,-3.5065,-3.5068,-3.5075,-3.5055,-3.5128,-3.5135,-3.5141,-3.5164,-3.5174,-3.5063,-3.5062,-3.5062,-3.5062,0,-3.5062,-3.5078,-3.5101,-3.5103,-3.511,-3.5134,-3.5115,-3.5125,-3.5108,-3.5098,-3.5125,-3.5119,-3.5127,-3.5134,-3.5118,-3.5166,-3.5156,-3.5132,-3.5097,-3.5155,-3.5177,-3.5185,-3.5067,-3.5066,-3.5065,-3.5064,0,0,-3.5161,-3.5151,-3.5159,-3.516,-3.5155,-3.5167,-3.519,-3.5198,-3.5207,-3.5209,-3.5227,-3.5245,-3.5224,-3.5227,-3.5211,-3.5229,-3.5284,-3.5204,-3.5203,-3.5219,-3.5337,-3.5355,-3.5366,-3.5269,-3.527,-3.5271,-3.5337,0,-3.5226,-3.5265,-3.5245,-3.5286,-3.5301,-3.5269,-3.5289,-3.5288,-3.5279,-3.5291,-3.5281,-3.5294,-3.5264,-3.5266,-3.5283,-3.5274,-3.5307,-3.5268,-3.5286,-3.5287,-3.5288,-3.5377,-3.5396,-3.5458,-3.5345,-3.5347,-3.5348,0,-3.5307,-3.5313,-3.5356,-3.5348,-3.5354,-3.5372,-3.5378,-3.5389,-3.5388,-3.538,-3.5384,-3.5363,-3.5385,-3.535,-3.538,-3.5354,-3.536,-3.5357,-3.5358,-3.536,-3.5321,-3.5381,-3.5477,-3.5487,-3.5361,-3.536,-3.5359,0,-3.5376,-3.5394,-3.5422,-3.5424,-3.5416,-3.5429,-3.5426,-3.5423,-3.5429,-3.5434,-3.5438,-3.5446,-3.545,-3.5456,-3.5438,-3.5415,-3.5471,-3.5435,-3.5465,-3.5466,-3.5479,-3.5479,-3.5579,-3.5482,-3.5482,-3.5482,-3.5482,0,-3.5451,-3.5479,-3.5453,-3.5471,-3.55,-3.5477,-3.5507,-3.5501,-3.5498,-3.5514,-3.5486,-3.5501,-3.5476,-3.5489,-3.5475,-3.5502,-3.5504,-3.5499,-3.5495,-3.5502,-3.5503,-3.5506,-3.5501,-3.5484,-3.5484,-3.5483,-3.5483,0,-3.5534,-3.5517,-3.5546,-3.5536,-3.5534,-3.5557,-3.5548,-3.5563,-3.5553,-3.5573,-3.5576,-3.5559,-3.5573,-3.5555,-3.5567,-3.5558,-3.5595,-3.5584,-3.5596,-3.5593,-3.5625,-3.5623,-3.5731,-3.5744,-3.5639,-3.564,-3.5641,0,-3.5583,-3.5603,-3.5595,-3.5604,-3.5603,-3.5617,-3.5623,-3.5601,-3.5609,-3.5609,-3.5624,-3.5636,-3.5643,-3.5667,-3.5656,-3.5665,-3.5654,-3.5692,-3.5655,-3.5662,-3.5655,-3.5655,-3.5657,-3.5699,-3.57,-3.5701,-3.5702,0,-3.5672,-3.5663,-3.5673,-3.5681,-3.5689,-3.5694,-3.5697,-3.5705,-3.5682,-3.5692,-3.5706,-3.5712,-3.5724,-3.5736,-3.5742,-3.5739,-3.5717,-3.5714,-3.5721,-3.5729,-3.5735,-3.5733,-3.5617,-3.5711,-3.571,-3.571,-3.5709,-3.5709,-3.5739,-3.5756,-3.5754,-3.5766,-3.5766,-3.5769,-3.5783,-3.5774,-3.5785,-3.5794,-3.578,-3.5797,-3.5795,-3.5801,-3.5801,-3.5814,-3.5798,-3.5809,-3.5812,-3.5815,-3.582,-3.5732,-3.5815,-3.5815,-3.5814,-3.5814,-3.5814,0,-3.5828,-3.5824,-3.5836,-3.5841,-3.5851,-3.5829,-3.5831,-3.5841,-3.5856,-3.5856,-3.5865,-3.588,-3.5892,-3.5882,-3.5891,-3.5903,-3.5894,-3.5907,-3.5906,-3.5906,-3.5834,-3.5827,-3.5914,-3.5914,-3.5914,-3.5914,-3.5914,-3.5914,-3.5875,-3.5902,-3.5893,-3.592,-3.5917,-3.5934,-3.5937,-3.594,-3.5939,-3.5959,-3.5968,-3.5961,-3.5957,-3.5966,-3.5975,-3.5972,-3.5977,-3.5994,-3.5987,-3.592,-3.5911,-3.5901,-3.5894,-3.5995,-3.5995,-3.6057,-3.6058,-3.6058]}]]